Terminal Aerodrome Forecast
Issued by NWS

Home | Current Version | Previous Version | Text Only | Print | Product List | Glossary On
Versions: 1 2 3 4 5 6 7 8 9 10 11 12 13 14 15 16 17 18 19 20 21 22 23
000
FTUS45 KMSO 260537
TAFSMN
TAF
KSMN 260537Z 2606/2706 VRB03KT 2SM -RASN BR OVC005
     FM260700 VRB05KT P6SM VCSH BKN010
     FM261800 VRB05KT P6SM BKN020 OVC180
      AMD LTD TO CLD VIS AND WIND=

USA.gov is the U.S. government's official web portal to all federal, state and local government web resources and services.